Time,TemperatureF,DewpointF,PressureIn,WindDirection,WindDirectionDegrees,WindSpeedMPH,WindSpeedGustMPH,Humidity,HourlyPrecipIn,Conditions,Clouds,dailyrainin,SoftwareType,DateUTC
2013-03-25 00:05:00,19.6,14.4,30.50,East,95,0.0,1.0,80,0.00,,---,0.00,VWS V14.00,2013-03-25 06:05:00,
2013-03-25 00:12:00,19.5,14.4,30.50,North,0,0.0,0.0,80,0.00,,---,0.00,VWS V14.00,2013-03-25 06:12:00,
2013-03-25 00:17:00,19.4,14.2,30.51,East,95,0.0,0.0,80,0.00,,---,0.00,VWS V14.00,2013-03-25 06:17:00,
2013-03-25 00:23:00,19.2,14.3,30.51,East,95,0.0,0.0,81,0.00,,---,0.00,VWS V14.00,2013-03-25 06:23:00,
2013-03-25 00:28:00,19.1,14.2,30.51,East,95,0.0,0.0,81,0.00,,---,0.00,VWS V14.00,2013-03-25 06:28:00,
2013-03-25 00:33:00,19.1,14.2,30.51,East,95,0.0,0.0,81,0.00,,---,0.00,VWS V14.00,2013-03-25 06:33:00,
2013-03-25 00:39:00,19.0,13.9,30.51,East,95,0.0,0.0,80,0.00,,---,0.00,VWS V14.00,2013-03-25 06:39:00,
2013-03-25 00:45:00,18.9,14.0,30.51,East,95,0.0,0.0,81,0.00,,---,0.00,VWS V14.00,2013-03-25 06:45:00,
2013-03-25 00:50:00,18.8,13.9,30.51,East,95,0.0,0.0,81,0.00,,---,0.00,VWS V14.00,2013-03-25 06:50:00,
2013-03-25 00:55:00,18.6,13.8,30.52,East,95,0.0,0.0,81,0.00,,---,0.00,VWS V14.00,2013-03-25 06:55:00,
2013-03-25 01:00:00,18.5,13.6,30.52,East,95,0.0,0.0,81,0.00,,---,0.00,VWS V14.00,2013-03-25 07:00:00,
2013-03-25 01:05:00,18.4,13.6,30.50,East,95,0.0,0.0,81,0.00,,---,0.00,VWS V14.00,2013-03-25 07:05:00,
2013-03-25 01:11:00,18.3,13.2,30.50,East,95,0.0,0.0,80,0.00,,---,0.00,VWS V14.00,2013-03-25 07:11:00,
2013-03-25 01:16:00,18.2,13.1,30.50,East,95,0.0,0.0,80,0.00,,---,0.00,VWS V14.00,2013-03-25 07:16:00,
2013-03-25 01:22:00,18.1,13.0,30.50,East,95,0.0,0.0,80,0.00,,---,0.00,VWS V14.00,2013-03-25 07:22:00,
2013-03-25 01:27:00,18.0,12.9,30.50,East,95,0.0,0.0,80,0.00,,---,0.00,VWS V14.00,2013-03-25 07:27:00,
2013-03-25 01:32:00,17.9,12.8,30.50,East,95,0.0,0.0,80,0.00,,---,0.00,VWS V14.00,2013-03-25 07:32:00,
2013-03-25 01:37:00,17.7,12.6,30.50,East,95,0.0,0.0,80,0.00,,---,0.00,VWS V14.00,2013-03-25 07:37:00,
2013-03-25 01:42:00,17.7,12.6,30.50,East,95,0.0,0.0,80,0.00,,---,0.00,VWS V14.00,2013-03-25 07:42:00,
2013-03-25 01:47:00,17.5,12.4,30.50,East,95,0.0,0.0,80,0.00,,---,0.00,VWS V14.00,2013-03-25 07:47:00,
2013-03-25 01:52:00,17.4,12.3,30.50,East,95,0.0,0.0,80,0.00,,---,0.00,VWS V14.00,2013-03-25 07:52:00,
2013-03-25 01:57:00,17.3,12.2,30.51,East,95,0.0,0.0,80,0.00,,---,0.00,VWS V14.00,2013-03-25 07:57:00,
2013-03-25 02:02:00,17.2,12.1,30.51,East,95,0.0,0.0,80,0.00,,---,0.00,VWS V14.00,2013-03-25 08:02:00,
2013-03-25 02:08:00,17.1,12.0,30.51,East,95,0.0,0.0,80,0.00,,---,0.00,VWS V14.00,2013-03-25 08:08:00,
2013-03-25 02:13:00,17.0,11.9,30.51,East,95,0.0,0.0,80,0.00,,---,0.00,VWS V14.00,2013-03-25 08:13:00,
2013-03-25 02:18:00,16.9,11.8,30.51,East,95,0.0,0.0,80,0.00,,---,0.00,VWS V14.00,2013-03-25 08:18:00,
2013-03-25 02:23:00,16.8,11.7,30.51,East,95,0.0,0.0,80,0.00,,---,0.00,VWS V14.00,2013-03-25 08:23:00,
2013-03-25 02:28:00,16.8,11.7,30.51,East,95,0.0,0.0,80,0.00,,---,0.00,VWS V14.00,2013-03-25 08:28:00,
2013-03-25 02:33:00,16.7,11.9,30.51,East,95,0.0,0.0,81,0.00,,---,0.00,VWS V14.00,2013-03-25 08:33:00,
2013-03-25 02:38:00,16.6,11.8,30.50,East,95,0.0,0.0,81,0.00,,---,0.00,VWS V14.00,2013-03-25 08:38:00,
2013-03-25 02:43:00,16.6,11.8,30.51,East,95,0.0,0.0,81,0.00,,---,0.00,VWS V14.00,2013-03-25 08:43:00,
2013-03-25 02:48:00,16.6,11.8,30.51,East,95,0.0,0.0,81,0.00,,---,0.00,VWS V14.00,2013-03-25 08:48:00,
2013-03-25 02:53:00,16.7,11.9,30.51,East,95,0.0,0.0,81,0.00,,---,0.00,VWS V14.00,2013-03-25 08:53:00,
2013-03-25 02:58:00,16.7,11.9,30.50,East,95,0.0,0.0,81,0.00,,---,0.00,VWS V14.00,2013-03-25 08:58:00,
2013-03-25 03:03:00,16.7,11.9,30.50,East,95,0.0,0.0,81,0.00,,---,0.00,VWS V14.00,2013-03-25 09:03:00,
2013-03-25 03:08:00,16.7,11.9,30.50,East,95,0.0,0.0,81,0.00,,---,0.00,VWS V14.00,2013-03-25 09:08:00,
2013-03-25 03:13:00,16.7,11.9,30.50,East,95,0.0,0.0,81,0.00,,---,0.00,VWS V14.00,2013-03-25 09:13:00,
2013-03-25 03:19:00,16.7,11.9,30.50,East,95,0.0,0.0,81,0.00,,---,0.00,VWS V14.00,2013-03-25 09:19:00,
2013-03-25 03:24:00,16.7,11.9,30.50,East,95,0.0,0.0,81,0.00,,---,0.00,VWS V14.00,2013-03-25 09:24:00,
2013-03-25 03:29:00,16.6,11.8,30.50,East,95,0.0,0.0,81,0.00,,---,0.00,VWS V14.00,2013-03-25 09:29:00,
2013-03-25 03:35:00,16.5,11.7,30.50,East,95,0.0,0.0,81,0.00,,---,0.00,VWS V14.00,2013-03-25 09:35:00,
2013-03-25 03:40:00,16.5,11.7,30.50,East,95,0.0,0.0,81,0.00,,---,0.00,VWS V14.00,2013-03-25 09:40:00,
2013-03-25 03:45:00,16.3,11.5,30.51,East,95,0.0,0.0,81,0.00,,---,0.00,VWS V14.00,2013-03-25 09:45:00,
2013-03-25 03:50:00,16.0,11.2,30.51,East,95,0.0,0.0,81,0.00,,---,0.00,VWS V14.00,2013-03-25 09:50:00,
2013-03-25 03:55:00,15.8,11.0,30.51,East,95,0.0,0.0,81,0.00,,---,0.00,VWS V14.00,2013-03-25 09:55:00,
2013-03-25 04:00:00,15.6,10.8,30.51,East,95,0.0,0.0,81,0.00,,---,0.00,VWS V14.00,2013-03-25 10:00:00,
2013-03-25 04:05:00,15.4,10.6,30.50,East,95,0.0,0.0,81,0.00,,---,0.00,VWS V14.00,2013-03-25 10:05:00,
2013-03-25 04:10:00,15.3,10.5,30.50,East,95,0.0,0.0,81,0.00,,---,0.00,VWS V14.00,2013-03-25 10:10:00,
2013-03-25 04:15:00,15.0,10.2,30.50,East,95,0.0,0.0,81,0.00,,---,0.00,VWS V14.00,2013-03-25 10:15:00,
2013-03-25 04:20:00,14.8,10.0,30.50,East,95,0.0,2.0,81,0.00,,---,0.00,VWS V14.00,2013-03-25 10:20:00,
2013-03-25 04:25:00,14.8,10.0,30.50,East,95,0.0,0.0,81,0.00,,---,0.00,VWS V14.00,2013-03-25 10:25:00,
2013-03-25 04:30:00,14.6,10.1,30.50,East,95,0.0,0.0,82,0.00,,---,0.00,VWS V14.00,2013-03-25 10:30:00,
2013-03-25 04:35:00,14.5,9.7,30.50,East,95,0.0,1.0,81,0.00,,---,0.00,VWS V14.00,2013-03-25 10:35:00,
2013-03-25 04:40:00,14.5,10.0,30.50,South,180,1.0,4.0,82,0.00,,---,0.00,VWS V14.00,2013-03-25 10:40:00,
2013-03-25 04:45:00,14.5,10.0,30.50,South,186,4.0,4.0,82,0.00,,---,0.00,VWS V14.00,2013-03-25 10:45:00,
2013-03-25 04:50:00,14.4,9.9,30.52,South,186,0.0,1.0,82,0.00,,---,0.00,VWS V14.00,2013-03-25 10:50:00,
2013-03-25 04:55:00,14.4,9.9,30.52,South,186,2.0,2.0,82,0.00,,---,0.00,VWS V14.00,2013-03-25 10:55:00,
2013-03-25 05:00:00,14.4,9.9,30.52,South,186,0.0,0.0,82,0.00,,---,0.00,VWS V14.00,2013-03-25 11:00:00,
2013-03-25 05:05:00,14.4,9.9,30.54,South,186,1.0,1.0,82,0.00,,---,0.00,VWS V14.00,2013-03-25 11:05:00,
2013-03-25 05:10:00,14.5,10.0,30.52,South,186,3.0,3.0,82,0.00,,---,0.00,VWS V14.00,2013-03-25 11:10:00,
2013-03-25 05:15:00,14.6,9.8,30.53,South,186,0.0,0.0,81,0.00,,---,0.00,VWS V14.00,2013-03-25 11:15:00,
2013-03-25 05:20:00,14.6,9.8,30.53,South,183,0.0,1.0,81,0.00,,---,0.00,VWS V14.00,2013-03-25 11:20:00,
2013-03-25 05:25:00,14.5,9.7,30.53,South,183,0.0,0.0,81,0.00,,---,0.00,VWS V14.00,2013-03-25 11:25:00,
2013-03-25 05:30:00,14.6,9.8,30.53,South,183,0.0,0.0,81,0.00,,---,0.00,VWS V14.00,2013-03-25 11:30:00,
2013-03-25 05:36:00,14.5,9.7,30.53,South,183,0.0,0.0,81,0.00,,---,0.00,VWS V14.00,2013-03-25 11:36:00,
2013-03-25 05:41:00,14.5,9.7,30.53,South,183,0.0,0.0,81,0.00,,---,0.00,VWS V14.00,2013-03-25 11:41:00,
2013-03-25 05:46:00,14.5,9.7,30.53,South,183,0.0,0.0,81,0.00,,---,0.00,VWS V14.00,2013-03-25 11:46:00,
2013-03-25 05:52:00,14.4,9.6,30.55,South,184,0.0,1.0,81,0.00,,---,0.00,VWS V14.00,2013-03-25 11:52:00,
2013-03-25 05:57:00,14.5,9.7,30.55,South,183,0.0,0.0,81,0.00,,---,0.00,VWS V14.00,2013-03-25 11:57:00,
2013-03-25 06:02:00,14.5,9.5,30.55,South,183,1.0,2.0,80,0.00,,---,0.00,VWS V14.00,2013-03-25 12:02:00,
2013-03-25 06:08:00,14.4,9.4,30.55,South,184,0.0,0.0,80,0.00,,---,0.00,VWS V14.00,2013-03-25 12:08:00,
2013-03-25 06:13:00,14.4,9.4,30.55,South,184,0.0,0.0,80,0.00,,---,0.00,VWS V14.00,2013-03-25 12:13:00,
2013-03-25 06:18:00,14.4,9.4,30.55,South,184,0.0,0.0,80,0.00,,---,0.00,VWS V14.00,2013-03-25 12:18:00,
2013-03-25 06:23:00,14.4,9.1,30.55,South,183,0.0,0.0,79,0.00,,---,0.00,VWS V14.00,2013-03-25 12:23:00,
2013-03-25 06:28:00,14.4,9.1,30.55,South,184,0.0,2.0,79,0.00,,---,0.00,VWS V14.00,2013-03-25 12:28:00,
2013-03-25 06:33:00,14.4,9.1,30.55,South,184,0.0,1.0,79,0.00,,---,0.00,VWS V14.00,2013-03-25 12:33:00,
2013-03-25 06:38:00,14.5,9.2,30.55,South,183,0.0,1.0,79,0.00,,---,0.00,VWS V14.00,2013-03-25 12:38:00,
2013-03-25 06:43:00,14.5,8.9,30.56,South,183,0.0,0.0,78,0.00,,---,0.00,VWS V14.00,2013-03-25 12:43:00,
2013-03-25 06:48:00,14.6,9.0,30.56,South,184,0.0,3.0,78,0.00,,---,0.00,VWS V14.00,2013-03-25 12:48:00,
2013-03-25 06:53:00,14.6,9.0,30.56,South,184,0.0,0.0,78,0.00,,---,0.00,VWS V14.00,2013-03-25 12:53:00,
2013-03-25 06:58:00,14.6,9.0,30.56,South,183,0.0,0.0,78,0.00,,---,0.00,VWS V14.00,2013-03-25 12:58:00,
2013-03-25 07:03:00,14.7,9.1,30.57,South,184,0.0,0.0,78,0.00,,---,0.00,VWS V14.00,2013-03-25 13:03:00,
2013-03-25 07:08:00,14.8,9.2,30.57,South,184,0.0,3.0,78,0.00,,---,0.00,VWS V14.00,2013-03-25 13:08:00,
2013-03-25 07:13:00,14.8,9.2,30.56,South,183,2.0,2.0,78,0.00,,---,0.00,VWS V14.00,2013-03-25 13:13:00,
2013-03-25 07:18:00,14.9,9.0,30.57,South,183,0.0,0.0,77,0.00,,---,0.00,VWS V14.00,2013-03-25 13:18:00,
2013-03-25 07:23:00,15.0,9.1,30.57,South,184,0.0,0.0,77,0.00,,---,0.00,VWS V14.00,2013-03-25 13:23:00,
2013-03-25 07:28:00,15.0,9.1,30.57,South,184,0.0,0.0,77,0.00,,---,0.00,VWS V14.00,2013-03-25 13:28:00,
2013-03-25 07:33:00,15.2,9.3,30.57,South,184,0.0,0.0,77,0.00,,---,0.00,VWS V14.00,2013-03-25 13:33:00,
2013-03-25 07:38:00,15.3,9.4,30.57,South,183,0.0,0.0,77,0.00,,---,0.00,VWS V14.00,2013-03-25 13:38:00,
2013-03-25 07:44:00,15.4,9.5,30.58,South,184,3.0,3.0,77,0.00,,---,0.00,VWS V14.00,2013-03-25 13:44:00,
2013-03-25 07:49:00,15.4,9.2,30.58,South,184,1.0,3.0,76,0.00,,---,0.00,VWS V14.00,2013-03-25 13:49:00,
2013-03-25 07:54:00,15.5,9.3,30.58,South,183,0.0,0.0,76,0.00,,---,0.00,VWS V14.00,2013-03-25 13:54:00,
2013-03-25 07:59:00,15.5,9.3,30.58,South,183,1.0,1.0,76,0.00,,---,0.00,VWS V14.00,2013-03-25 13:59:00,
2013-03-25 08:04:00,15.7,9.2,30.58,South,184,0.0,2.0,75,0.00,,---,0.00,VWS V14.00,2013-03-25 14:04:00,
2013-03-25 08:09:00,15.8,9.3,30.58,South,184,0.0,1.0,75,0.00,,---,0.00,VWS V14.00,2013-03-25 14:09:00,
2013-03-25 08:14:00,16.1,9.6,30.58,South,184,0.0,0.0,75,0.00,,---,0.00,VWS V14.00,2013-03-25 14:14:00,
2013-03-25 08:19:00,15.9,9.1,30.58,South,183,0.0,0.0,74,0.00,,---,0.00,VWS V14.00,2013-03-25 14:19:00,
2013-03-25 08:24:00,15.8,8.4,30.58,South,184,2.0,2.0,72,0.00,,---,0.00,VWS V14.00,2013-03-25 14:24:00,
2013-03-25 08:29:00,15.7,8.3,30.58,South,184,0.0,1.0,72,0.00,,---,0.00,VWS V14.00,2013-03-25 14:29:00,
2013-03-25 08:34:00,16.0,8.6,30.59,South,184,0.0,2.0,72,0.00,,---,0.00,VWS V14.00,2013-03-25 14:34:00,
2013-03-25 08:39:00,16.2,8.5,30.59,South,184,1.0,2.0,71,0.00,,---,0.00,VWS V14.00,2013-03-25 14:39:00,
2013-03-25 08:44:00,16.4,8.7,30.58,SSW,192,3.0,4.0,71,0.00,,---,0.00,VWS V14.00,2013-03-25 14:44:00,
2013-03-25 08:49:00,16.5,8.4,30.59,SSW,193,0.0,0.0,70,0.00,,---,0.00,VWS V14.00,2013-03-25 14:49:00,
2013-03-25 08:54:00,16.8,8.7,30.59,SSW,192,0.0,2.0,70,0.00,,---,0.00,VWS V14.00,2013-03-25 14:54:00,
2013-03-25 08:59:00,17.2,9.1,30.58,SSW,193,1.0,1.0,70,0.00,,---,0.00,VWS V14.00,2013-03-25 14:59:00,
2013-03-25 09:04:00,17.4,9.3,30.58,SSW,194,1.0,2.0,70,0.00,,---,0.00,VWS V14.00,2013-03-25 15:04:00,
2013-03-25 09:09:00,17.6,9.5,30.59,SW,227,0.0,4.0,70,0.00,,---,0.00,VWS V14.00,2013-03-25 15:09:00,
2013-03-25 09:14:00,17.7,9.6,30.59,SW,226,0.0,2.0,70,0.00,,---,0.00,VWS V14.00,2013-03-25 15:14:00,
2013-03-25 09:19:00,17.9,9.8,30.59,SW,226,0.0,0.0,70,0.00,,---,0.00,VWS V14.00,2013-03-25 15:19:00,
2013-03-25 09:24:00,18.3,9.9,30.58,South,178,0.0,4.0,69,0.00,,---,0.00,VWS V14.00,2013-03-25 15:24:00,
2013-03-25 09:29:00,18.3,9.9,30.58,South,186,0.0,2.0,69,0.00,,---,0.00,VWS V14.00,2013-03-25 15:29:00,
2013-03-25 09:34:00,18.6,9.8,30.57,South,185,0.0,0.0,68,0.00,,---,0.00,VWS V14.00,2013-03-25 15:34:00,
2013-03-25 09:39:00,19.2,10.4,30.57,South,182,1.0,3.0,68,0.00,,---,0.00,VWS V14.00,2013-03-25 15:39:00,
2013-03-25 09:45:00,19.2,10.1,30.57,South,186,0.0,3.0,67,0.00,,---,0.00,VWS V14.00,2013-03-25 15:45:00,
2013-03-25 09:51:00,19.7,10.5,30.57,South,190,4.0,4.0,67,0.00,,---,0.00,VWS V14.00,2013-03-25 15:51:00,
2013-03-25 09:57:00,19.9,10.4,30.57,SW,217,1.0,3.0,66,0.00,,---,0.00,VWS V14.00,2013-03-25 15:57:00,
2013-03-25 10:02:00,20.7,11.1,30.56,SSW,213,0.0,3.0,66,0.00,,---,0.00,VWS V14.00,2013-03-25 16:02:00,
2013-03-25 10:08:00,20.9,11.0,30.56,SSW,204,0.0,4.0,65,0.00,,---,0.00,VWS V14.00,2013-03-25 16:08:00,
2013-03-25 10:13:00,21.1,10.8,30.56,SSW,205,0.0,2.0,64,0.00,,---,0.00,VWS V14.00,2013-03-25 16:13:00,
2013-03-25 10:18:00,21.2,10.6,30.56,SSW,205,0.0,1.0,63,0.00,,---,0.00,VWS V14.00,2013-03-25 16:18:00,
2013-03-25 10:23:00,21.8,11.2,30.56,SSW,203,1.0,4.0,63,0.00,,---,0.01,VWS V14.00,2013-03-25 16:23:00,
2013-03-25 10:28:00,22.2,11.2,30.56,SSW,198,0.0,2.0,62,0.00,,---,0.01,VWS V14.00,2013-03-25 16:28:00,
2013-03-25 10:33:00,22.4,11.4,30.56,SSW,195,0.0,2.0,62,0.00,,---,0.01,VWS V14.00,2013-03-25 16:33:00,
2013-03-25 10:38:00,23.2,11.8,30.55,SSW,194,0.0,1.0,61,0.00,,---,0.01,VWS V14.00,2013-03-25 16:38:00,
2013-03-25 10:43:00,23.1,10.9,30.55,SSW,196,1.0,2.0,59,0.00,,---,0.01,VWS V14.00,2013-03-25 16:43:00,
2013-03-25 10:49:00,23.4,11.6,30.55,SSW,197,0.0,3.0,60,0.00,,---,0.01,VWS V14.00,2013-03-25 16:49:00,
2013-03-25 10:55:00,24.3,12.8,30.55,SSE,153,4.0,4.0,61,0.00,,---,0.01,VWS V14.00,2013-03-25 16:55:00,
2013-03-25 11:00:00,23.9,11.3,30.55,SSE,155,0.0,2.0,58,0.00,,---,0.01,VWS V14.00,2013-03-25 17:00:00,
2013-03-25 11:05:00,24.0,11.8,30.54,South,171,0.0,1.0,59,0.00,,---,0.01,VWS V14.00,2013-03-25 17:05:00,
2013-03-25 11:10:00,24.0,11.4,30.54,South,170,0.0,0.0,58,0.00,,---,0.01,VWS V14.00,2013-03-25 17:10:00,
2013-03-25 11:15:00,25.0,12.7,30.54,SSE,163,1.0,3.0,59,0.00,,---,0.01,VWS V14.00,2013-03-25 17:15:00,
2013-03-25 11:20:00,24.8,12.1,30.54,SSE,163,0.0,0.0,58,0.00,,---,0.01,VWS V14.00,2013-03-25 17:20:00,
2013-03-25 11:25:00,25.5,13.6,30.54,SSE,160,0.0,2.0,60,0.00,,---,0.01,VWS V14.00,2013-03-25 17:25:00,
2013-03-25 11:32:00,26.1,13.0,30.52,ESE,113,2.0,2.0,57,0.00,,---,0.01,VWS V14.00,2013-03-25 17:32:00,
2013-03-25 11:37:00,26.1,12.2,30.52,ESE,113,0.0,0.0,55,0.00,,---,0.01,VWS V14.00,2013-03-25 17:37:00,
2013-03-25 11:42:00,26.2,12.2,30.52,ESE,113,0.0,2.0,55,0.00,,---,0.01,VWS V14.00,2013-03-25 17:42:00,
2013-03-25 11:47:00,26.6,12.6,30.52,ESE,113,0.0,1.0,55,0.00,,---,0.01,VWS V14.00,2013-03-25 17:47:00,
2013-03-25 11:52:00,26.8,12.8,30.52,ESE,114,0.0,1.0,55,0.00,,---,0.01,VWS V14.00,2013-03-25 17:52:00,
2013-03-25 11:58:00,27.4,13.4,30.52,ESE,114,2.0,3.0,55,0.00,,---,0.01,VWS V14.00,2013-03-25 17:58:00,
2013-03-25 12:03:00,27.6,12.3,30.52,ESE,106,1.0,2.0,52,0.00,,---,0.01,VWS V14.00,2013-03-25 18:03:00,
2013-03-25 12:08:00,27.7,12.4,30.52,ESE,103,2.0,2.0,52,0.00,,---,0.01,VWS V14.00,2013-03-25 18:08:00,
2013-03-25 12:14:00,27.8,11.1,30.52,NE,36,0.0,1.0,49,0.00,,---,0.01,VWS V14.00,2013-03-25 18:14:00,
2013-03-25 12:19:00,27.4,10.8,30.52,NE,36,0.0,1.0,49,0.00,,---,0.01,VWS V14.00,2013-03-25 18:19:00,
2013-03-25 12:24:00,28.4,12.6,30.52,NNE,31,4.0,4.0,51,0.00,,---,0.01,VWS V14.00,2013-03-25 18:24:00,
2013-03-25 12:29:00,28.7,12.4,30.50,NNE,30,2.0,2.0,50,0.00,,---,0.01,VWS V14.00,2013-03-25 18:29:00,
2013-03-25 12:34:00,28.5,12.7,30.50,ENE,76,1.0,4.0,51,0.00,,---,0.01,VWS V14.00,2013-03-25 18:34:00,
2013-03-25 12:39:00,28.5,11.8,30.50,NNE,28,1.0,3.0,49,0.00,,---,0.02,VWS V14.00,2013-03-25 18:39:00,
2013-03-25 12:45:00,29.2,13.3,30.50,NNE,24,0.0,2.0,51,0.00,,---,0.02,VWS V14.00,2013-03-25 18:45:00,
2013-03-25 12:50:00,29.2,12.0,30.50,ENE,57,4.0,4.0,48,0.00,,---,0.02,VWS V14.00,2013-03-25 18:50:00,
2013-03-25 12:55:00,29.4,12.6,30.50,East,101,1.0,6.0,49,0.00,,---,0.02,VWS V14.00,2013-03-25 18:55:00,
2013-03-25 13:00:00,29.8,13.0,30.50,North,360,1.0,2.0,49,0.00,,---,0.02,VWS V14.00,2013-03-25 19:00:00,
2013-03-25 13:05:00,30.0,14.1,30.50,East,88,0.0,1.0,51,0.00,,---,0.02,VWS V14.00,2013-03-25 19:05:00,
2013-03-25 13:10:00,30.6,13.7,30.50,East,79,2.0,4.0,49,0.00,,---,0.02,VWS V14.00,2013-03-25 19:10:00,
2013-03-25 13:15:00,30.1,12.8,30.51,ESE,109,0.0,3.0,48,0.00,,---,0.02,VWS V14.00,2013-03-25 19:15:00,
2013-03-25 13:22:00,30.8,13.0,30.49,NE,45,3.0,4.0,47,0.00,,---,0.03,VWS V14.00,2013-03-25 19:22:00,
2013-03-25 13:27:00,30.5,12.7,30.49,NE,37,0.0,2.0,47,0.00,,---,0.03,VWS V14.00,2013-03-25 19:27:00,
2013-03-25 13:32:00,30.8,12.5,30.49,NE,34,1.0,2.0,46,0.00,,---,0.03,VWS V14.00,2013-03-25 19:32:00,
2013-03-25 13:37:00,31.5,14.1,30.49,NE,39,0.0,0.0,48,0.00,,---,0.03,VWS V14.00,2013-03-25 19:37:00,
2013-03-25 13:42:00,31.8,13.4,30.49,NE,48,1.0,4.0,46,0.00,,---,0.04,VWS V14.00,2013-03-25 19:42:00,
2013-03-25 13:47:00,31.6,12.7,30.48,East,88,0.0,4.0,45,0.00,,---,0.04,VWS V14.00,2013-03-25 19:47:00,
2013-03-25 13:52:00,31.5,12.1,30.48,ENE,75,0.0,4.0,44,0.00,,---,0.04,VWS V14.00,2013-03-25 19:52:00,
2013-03-25 13:57:00,31.1,12.2,30.48,ENE,61,0.0,1.0,45,0.00,,---,0.04,VWS V14.00,2013-03-25 19:57:00,
2013-03-25 14:02:00,31.5,12.6,30.48,North,9,3.0,3.0,45,0.00,,---,0.05,VWS V14.00,2013-03-25 20:02:00,
2013-03-25 14:08:00,31.8,12.4,30.48,NE,45,1.0,2.0,44,0.00,,---,0.05,VWS V14.00,2013-03-25 20:08:00,
2013-03-25 14:13:00,31.9,12.5,30.48,NE,40,0.0,0.0,44,0.00,,---,0.05,VWS V14.00,2013-03-25 20:13:00,
2013-03-25 14:19:00,33.0,14.5,30.47,East,88,1.0,3.0,46,0.00,,---,0.05,VWS V14.00,2013-03-25 20:19:00,
2013-03-25 14:24:00,33.0,14.5,30.46,ENE,75,0.0,4.0,46,0.00,,---,0.06,VWS V14.00,2013-03-25 20:24:00,
2013-03-25 14:29:00,33.4,14.9,30.46,SE,126,2.0,3.0,46,0.00,,---,0.06,VWS V14.00,2013-03-25 20:29:00,
2013-03-25 14:34:00,32.8,12.8,30.46,SSE,155,0.0,3.0,43,0.00,,---,0.06,VWS V14.00,2013-03-25 20:34:00,
2013-03-25 14:39:00,33.7,15.1,30.46,East,100,0.0,5.0,46,0.04,,---,0.07,VWS V14.00,2013-03-25 20:39:00,
2013-03-25 14:44:00,33.7,13.6,30.46,East,92,0.0,4.0,43,0.04,,---,0.07,VWS V14.00,2013-03-25 20:44:00,
2013-03-25 14:49:00,33.4,14.9,30.46,ESE,102,0.0,5.0,46,0.04,,---,0.07,VWS V14.00,2013-03-25 20:49:00,
2013-03-25 14:54:00,33.7,15.6,30.46,East,97,0.0,2.0,47,0.00,,---,0.07,VWS V14.00,2013-03-25 20:54:00,
2013-03-25 14:59:00,34.4,15.8,30.46,ESE,105,2.0,3.0,46,0.00,,---,0.08,VWS V14.00,2013-03-25 20:59:00,
2013-03-25 15:04:00,34.1,15.0,30.45,ESE,114,1.0,5.0,45,0.00,,---,0.08,VWS V14.00,2013-03-25 21:04:00,
2013-03-25 15:09:00,34.0,14.9,30.45,ESE,122,2.0,2.0,45,0.00,,---,0.08,VWS V14.00,2013-03-25 21:09:00,
2013-03-25 15:14:00,34.3,15.2,30.45,SE,130,0.0,7.0,45,0.00,,---,0.08,VWS V14.00,2013-03-25 21:14:00,
2013-03-25 15:19:00,34.0,14.9,30.45,SE,128,0.0,0.0,45,0.00,,---,0.08,VWS V14.00,2013-03-25 21:19:00,
2013-03-25 15:24:00,34.2,14.1,30.45,SE,125,0.0,0.0,43,0.00,,---,0.09,VWS V14.00,2013-03-25 21:24:00,
2013-03-25 15:29:00,35.0,15.8,30.45,SE,125,0.0,4.0,45,0.00,,---,0.09,VWS V14.00,2013-03-25 21:29:00,
2013-03-25 15:34:00,35.1,17.4,30.45,SE,124,0.0,0.0,48,0.00,,---,0.09,VWS V14.00,2013-03-25 21:34:00,
2013-03-25 15:39:00,35.2,15.0,30.44,SE,140,3.0,3.0,43,0.00,,---,0.09,VWS V14.00,2013-03-25 21:39:00,
2013-03-25 15:44:00,35.2,16.5,30.45,SE,137,0.0,4.0,46,0.00,,---,0.09,VWS V14.00,2013-03-25 21:44:00,
2013-03-25 15:49:00,35.5,16.3,30.45,SE,137,0.0,1.0,45,0.00,,---,0.09,VWS V14.00,2013-03-25 21:49:00,
2013-03-25 15:54:00,36.1,16.3,30.43,SE,137,0.0,1.0,44,0.00,,---,0.09,VWS V14.00,2013-03-25 21:54:00,
2013-03-25 15:59:00,35.8,15.0,30.43,SE,124,0.0,4.0,42,0.00,,---,0.09,VWS V14.00,2013-03-25 21:59:00,
2013-03-25 16:04:00,36.1,16.3,30.44,South,190,0.0,1.0,44,0.00,,---,0.09,VWS V14.00,2013-03-25 22:04:00,
2013-03-25 16:09:00,36.3,14.9,30.45,SSE,153,3.0,6.0,41,0.00,,---,0.09,VWS V14.00,2013-03-25 22:09:00,
2013-03-25 16:14:00,35.5,13.6,30.45,SE,141,4.0,4.0,40,0.00,,---,0.09,VWS V14.00,2013-03-25 22:14:00,
2013-03-25 16:19:00,35.6,13.1,30.45,SE,142,0.0,1.0,39,0.00,,---,0.10,VWS V14.00,2013-03-25 22:19:00,
2013-03-25 16:24:00,35.2,13.9,30.46,SE,141,0.0,0.0,41,0.00,,---,0.10,VWS V14.00,2013-03-25 22:24:00,
2013-03-25 16:29:00,35.8,13.9,30.44,SE,142,0.0,0.0,40,0.00,,---,0.10,VWS V14.00,2013-03-25 22:29:00,
2013-03-25 16:34:00,35.3,10.4,30.46,SSE,161,1.0,4.0,35,0.00,,---,0.10,VWS V14.00,2013-03-25 22:34:00,
2013-03-25 16:39:00,35.3,11.0,30.46,SSE,161,0.0,1.0,36,0.00,,---,0.10,VWS V14.00,2013-03-25 22:39:00,
2013-03-25 16:44:00,36.0,14.6,30.44,SE,144,2.0,3.0,41,0.00,,---,0.10,VWS V14.00,2013-03-25 22:44:00,
2013-03-25 16:49:00,36.1,15.2,30.44,SE,144,0.0,2.0,42,0.00,,---,0.10,VWS V14.00,2013-03-25 22:49:00,
2013-03-25 16:54:00,36.2,11.8,30.44,SSE,157,2.0,3.0,36,0.00,,---,0.10,VWS V14.00,2013-03-25 22:54:00,
2013-03-25 16:59:00,37.7,14.4,30.43,SSE,156,0.0,1.0,38,0.00,,---,0.10,VWS V14.00,2013-03-25 22:59:00,
2013-03-25 17:04:00,35.7,13.8,30.44,SSE,156,0.0,0.0,40,0.00,,---,0.10,VWS V14.00,2013-03-25 23:04:00,
2013-03-25 17:09:00,36.4,15.5,30.44,SSE,156,0.0,0.0,42,0.00,,---,0.10,VWS V14.00,2013-03-25 23:09:00,
2013-03-25 17:14:00,36.3,13.7,30.44,SSE,155,2.0,3.0,39,0.00,,---,0.10,VWS V14.00,2013-03-25 23:14:00,
2013-03-25 17:19:00,35.0,11.4,30.46,SSE,155,0.0,2.0,37,0.00,,---,0.10,VWS V14.00,2013-03-25 23:19:00,
2013-03-25 17:24:00,35.0,12.0,30.46,SSE,155,0.0,2.0,38,0.00,,---,0.10,VWS V14.00,2013-03-25 23:24:00,
2013-03-25 17:29:00,34.8,12.9,30.46,SSE,148,0.0,2.0,40,0.00,,---,0.10,VWS V14.00,2013-03-25 23:29:00,
2013-03-25 17:34:00,34.4,12.0,30.46,SE,140,1.0,3.0,39,0.00,,---,0.10,VWS V14.00,2013-03-25 23:34:00,
2013-03-25 17:39:00,34.1,12.3,30.46,SE,140,0.0,1.0,40,0.00,,---,0.10,VWS V14.00,2013-03-25 23:39:00,
2013-03-25 17:44:00,33.3,8.6,30.47,SE,142,0.0,1.0,35,0.00,,---,0.10,VWS V14.00,2013-03-25 23:44:00,
2013-03-25 17:49:00,33.0,9.0,30.47,SE,142,0.0,0.0,36,0.00,,---,0.10,VWS V14.00,2013-03-25 23:49:00,
2013-03-25 17:54:00,32.9,10.7,30.47,SE,141,0.0,0.0,39,0.00,,---,0.10,VWS V14.00,2013-03-25 23:54:00,
2013-03-25 17:59:00,32.9,10.1,30.48,SE,142,0.0,2.0,38,0.00,,---,0.10,VWS V14.00,2013-03-25 23:59:00,
2013-03-25 18:04:00,32.9,10.7,30.46,SE,142,1.0,1.0,39,0.00,,---,0.10,VWS V14.00,2013-03-26 00:04:00,
2013-03-25 18:09:00,32.2,8.9,30.47,SE,141,0.0,0.0,37,0.00,,---,0.10,VWS V14.00,2013-03-26 00:09:00,
2013-03-25 18:14:00,32.0,8.7,30.48,SE,142,0.0,1.0,37,0.00,,---,0.10,VWS V14.00,2013-03-26 00:14:00,
2013-03-25 18:19:00,31.9,7.4,30.48,SE,142,0.0,0.0,35,0.00,,---,0.10,VWS V14.00,2013-03-26 00:19:00,
2013-03-25 18:24:00,31.9,7.4,30.48,SE,142,0.0,0.0,35,0.00,,---,0.10,VWS V14.00,2013-03-26 00:24:00,
2013-03-25 18:29:00,31.8,11.3,30.48,SE,141,0.0,2.0,42,0.00,,---,0.10,VWS V14.00,2013-03-26 00:29:00,
2013-03-25 18:34:00,31.7,11.8,30.48,SE,141,0.0,0.0,43,0.00,,---,0.10,VWS V14.00,2013-03-26 00:34:00,
2013-03-25 18:39:00,31.5,11.6,30.48,SE,140,0.0,1.0,43,0.00,,---,0.10,VWS V14.00,2013-03-26 00:39:00,
2013-03-25 18:44:00,31.4,11.0,30.48,SE,140,0.0,1.0,42,0.00,,---,0.10,VWS V14.00,2013-03-26 00:44:00,
2013-03-25 18:49:00,31.2,10.8,30.48,SE,140,0.0,0.0,42,0.00,,---,0.10,VWS V14.00,2013-03-26 00:49:00,
2013-03-25 18:54:00,30.9,10.5,30.48,SE,140,1.0,1.0,42,0.00,,---,0.10,VWS V14.00,2013-03-26 00:54:00,
2013-03-25 18:59:00,30.7,10.9,30.48,SE,141,0.0,1.0,43,0.00,,---,0.10,VWS V14.00,2013-03-26 00:59:00,
2013-03-25 19:04:00,30.5,11.2,30.48,SE,140,0.0,1.0,44,0.00,,---,0.10,VWS V14.00,2013-03-26 01:04:00,
2013-03-25 19:09:00,30.4,10.6,30.48,SE,141,0.0,1.0,43,0.00,,---,0.10,VWS V14.00,2013-03-26 01:09:00,
2013-03-25 19:14:00,30.2,10.4,30.48,SE,140,0.0,0.0,43,0.00,,---,0.10,VWS V14.00,2013-03-26 01:14:00,
2013-03-25 19:19:00,30.1,10.3,30.48,SE,140,0.0,1.0,43,0.00,,---,0.10,VWS V14.00,2013-03-26 01:19:00,
2013-03-25 19:24:00,30.0,10.7,30.48,SE,140,0.0,0.0,44,0.00,,---,0.10,VWS V14.00,2013-03-26 01:24:00,
2013-03-25 19:29:00,29.7,11.0,30.48,SE,140,0.0,0.0,45,0.00,,---,0.10,VWS V14.00,2013-03-26 01:29:00,
2013-03-25 19:34:00,29.5,10.8,30.48,SE,140,0.0,0.0,45,0.00,,---,0.10,VWS V14.00,2013-03-26 01:34:00,
2013-03-25 19:39:00,29.3,11.6,30.50,SE,140,0.0,0.0,47,0.00,,---,0.10,VWS V14.00,2013-03-26 01:39:00,
2013-03-25 19:44:00,29.1,12.3,30.50,SE,140,0.0,0.0,49,0.00,,---,0.10,VWS V14.00,2013-03-26 01:44:00,
2013-03-25 19:49:00,28.9,11.7,30.50,SE,140,0.0,1.0,48,0.00,,---,0.10,VWS V14.00,2013-03-26 01:49:00,
2013-03-25 19:54:00,28.9,11.2,30.50,SE,141,0.0,0.0,47,0.00,,---,0.10,VWS V14.00,2013-03-26 01:54:00,
2013-03-25 19:59:00,28.7,12.0,30.50,SE,140,0.0,0.0,49,0.00,,---,0.10,VWS V14.00,2013-03-26 01:59:00,
2013-03-25 20:05:00,28.3,11.1,30.50,SE,140,0.0,0.0,48,0.00,,---,0.10,VWS V14.00,2013-03-26 02:05:00,
2013-03-25 20:10:00,28.0,10.9,30.51,SE,140,0.0,0.0,48,0.00,,---,0.10,VWS V14.00,2013-03-26 02:10:00,
2013-03-25 20:15:00,27.9,11.2,30.50,SE,140,0.0,0.0,49,0.00,,---,0.10,VWS V14.00,2013-03-26 02:15:00,
2013-03-25 20:20:00,27.7,11.5,30.51,SE,140,0.0,0.0,50,0.00,,---,0.10,VWS V14.00,2013-03-26 02:20:00,
2013-03-25 20:25:00,27.6,11.9,30.51,SE,140,0.0,1.0,51,0.00,,---,0.10,VWS V14.00,2013-03-26 02:25:00,
2013-03-25 20:30:00,27.5,11.3,30.51,SE,140,0.0,0.0,50,0.00,,---,0.10,VWS V14.00,2013-03-26 02:30:00,
2013-03-25 20:35:00,27.4,11.7,30.51,SE,140,0.0,0.0,51,0.00,,---,0.10,VWS V14.00,2013-03-26 02:35:00,
2013-03-25 20:40:00,27.2,11.5,30.51,SE,141,0.0,0.0,51,0.00,,---,0.10,VWS V14.00,2013-03-26 02:40:00,
2013-03-25 20:45:00,27.1,11.8,30.51,SE,140,0.0,0.0,52,0.00,,---,0.10,VWS V14.00,2013-03-26 02:45:00,
2013-03-25 20:50:00,26.9,11.6,30.51,SE,140,0.0,0.0,52,0.00,,---,0.10,VWS V14.00,2013-03-26 02:50:00,
2013-03-25 20:55:00,26.8,12.0,30.51,SE,140,0.0,0.0,53,0.00,,---,0.10,VWS V14.00,2013-03-26 02:55:00,
2013-03-25 21:00:00,26.7,11.9,30.51,SE,141,0.0,0.0,53,0.00,,---,0.10,VWS V14.00,2013-03-26 03:00:00,
2013-03-25 21:05:00,26.6,11.8,30.49,SE,141,0.0,0.0,53,0.00,,---,0.10,VWS V14.00,2013-03-26 03:05:00,
2013-03-25 21:10:00,26.3,11.5,30.50,SE,141,0.0,0.0,53,0.00,,---,0.10,VWS V14.00,2013-03-26 03:10:00,
2013-03-25 21:15:00,26.2,11.4,30.50,SE,140,0.0,0.0,53,0.00,,---,0.10,VWS V14.00,2013-03-26 03:15:00,
2013-03-25 21:20:00,26.0,11.6,30.50,SE,140,0.0,0.0,54,0.00,,---,0.10,VWS V14.00,2013-03-26 03:20:00,
2013-03-25 21:27:00,25.7,11.4,30.50,SE,141,0.0,0.0,54,0.00,,---,0.10,VWS V14.00,2013-03-26 03:27:00,
2013-03-25 21:33:00,25.7,10.9,30.50,SE,140,0.0,0.0,53,0.00,,---,0.10,VWS V14.00,2013-03-26 03:33:00,
2013-03-25 21:38:00,25.6,11.3,30.50,SE,140,0.0,0.0,54,0.00,,---,0.10,VWS V14.00,2013-03-26 03:38:00,
2013-03-25 21:43:00,25.6,11.3,30.50,SE,141,0.0,2.0,54,0.00,,---,0.10,VWS V14.00,2013-03-26 03:43:00,
2013-03-25 21:48:00,25.4,10.7,30.50,SE,140,0.0,0.0,53,0.00,,---,0.10,VWS V14.00,2013-03-26 03:48:00,
2013-03-25 21:54:00,25.1,10.8,30.50,SE,140,0.0,0.0,54,0.00,,---,0.10,VWS V14.00,2013-03-26 03:54:00,
2013-03-25 22:00:00,25.3,10.6,30.50,SE,140,0.0,0.0,53,0.00,,---,0.10,VWS V14.00,2013-03-26 04:00:00,
2013-03-25 22:05:00,25.3,10.6,30.49,SE,140,0.0,0.0,53,0.00,,---,0.10,VWS V14.00,2013-03-26 04:05:00,
2013-03-25 22:07:00,25.4,10.7,30.49,SE,140,0.0,0.0,53,0.00,,---,0.10,VWS V14.00,2013-03-26 04:07:00,
2013-03-25 22:08:00,25.4,10.7,30.49,SE,140,0.0,0.0,53,0.00,,---,0.10,VWS V14.00,2013-03-26 04:08:00,
2013-03-25 22:13:00,25.3,10.6,30.49,SE,140,0.0,0.0,53,0.00,,---,0.10,VWS V14.00,2013-03-26 04:13:00,
2013-03-25 22:18:00,25.2,10.5,30.49,SE,141,0.0,1.0,53,0.00,,---,0.10,VWS V14.00,2013-03-26 04:18:00,
2013-03-25 22:23:00,25.3,11.0,30.49,SSE,153,0.0,0.0,54,0.00,,---,0.10,VWS V14.00,2013-03-26 04:23:00,
2013-03-25 22:29:00,25.3,11.0,30.49,SSE,155,0.0,0.0,54,0.00,,---,0.10,VWS V14.00,2013-03-26 04:29:00,
2013-03-25 22:35:00,25.3,11.4,30.49,SSE,155,0.0,0.0,55,0.00,,---,0.10,VWS V14.00,2013-03-26 04:35:00,
2013-03-25 22:39:00,25.2,11.3,30.48,SSE,155,0.0,0.0,55,0.00,,---,0.10,VWS V14.00,2013-03-26 04:39:00,
2013-03-25 22:44:00,25.1,11.2,30.48,SSE,155,0.0,0.0,55,0.00,,---,0.10,VWS V14.00,2013-03-26 04:44:00,
2013-03-25 22:49:00,24.9,11.4,30.48,SSE,155,0.0,0.0,56,0.00,,---,0.10,VWS V14.00,2013-03-26 04:49:00,
2013-03-25 22:55:00,24.7,11.2,30.48,SSE,155,0.0,0.0,56,0.00,,---,0.10,VWS V14.00,2013-03-26 04:55:00,
2013-03-25 23:00:00,24.6,11.2,30.48,SSE,155,0.0,0.0,56,0.00,,---,0.10,VWS V14.00,2013-03-26 05:00:00,
2013-03-25 23:05:00,24.3,11.3,30.45,SSE,155,0.0,0.0,57,0.00,,---,0.10,VWS V14.00,2013-03-26 05:05:00,
2013-03-25 23:12:00,23.9,10.9,30.45,SSE,155,0.0,0.0,57,0.00,,---,0.10,VWS V14.00,2013-03-26 05:12:00,
2013-03-25 23:17:00,23.8,10.8,30.44,SSE,155,0.0,0.0,57,0.00,,---,0.10,VWS V14.00,2013-03-26 05:17:00,
2013-03-25 23:22:00,23.5,10.9,30.44,SSE,155,0.0,1.0,58,0.00,,---,0.10,VWS V14.00,2013-03-26 05:22:00,
2013-03-25 23:27:00,23.4,10.4,30.45,SSE,155,0.0,2.0,57,0.00,,---,0.10,VWS V14.00,2013-03-26 05:27:00,
2013-03-25 23:32:00,23.3,10.7,30.45,SSE,155,0.0,0.0,58,0.00,,---,0.10,VWS V14.00,2013-03-26 05:32:00,
2013-03-25 23:37:00,23.2,10.6,30.44,SSE,152,0.0,2.0,58,0.00,,---,0.10,VWS V14.00,2013-03-26 05:37:00,
2013-03-25 23:42:00,23.1,10.5,30.44,SSE,152,0.0,1.0,58,0.00,,---,0.10,VWS V14.00,2013-03-26 05:42:00,
2013-03-25 23:47:00,23.0,10.8,30.44,SSE,152,0.0,0.0,59,0.00,,---,0.10,VWS V14.00,2013-03-26 05:47:00,
2013-03-25 23:53:00,22.9,11.1,30.44,SSE,152,0.0,1.0,60,0.00,,---,0.10,VWS V14.00,2013-03-26 05:53:00,
2013-03-25 23:58:00,22.7,10.9,30.44,SSE,152,0.0,1.0,60,0.00,,---,0.10,VWS V14.00,2013-03-26 05:58:00,